Weather History for KASE - September, 2013

Change the Weather History Date:

Sunday, September 15, 2013

  Actual Average Record
Temperature  
Mean Temperature 54 °F 54 °F  
Max Temperature 65 °F 69 °F 82 °F (2000)
Min Temperature 43 °F 39 °F 27 °F (1993)
Degree Days  
Heating Degree Days 11 11  
Month to date heating degree days 63 135  
Since 1 July heating degree days 198 331  
Cooling Degree Days 0 0  
Month to date cooling degree days 9 0  
Year to date cooling degree days 69 39  
Growing Degree Days 3 (Base 50)    
Moisture  
Dew Point 45 °F    
Average Humidity 73    
Maximum Humidity 93    
Minimum Humidity 52    
Precipitation  
Precipitation 0.11 in 0.07 in 0.25 in (2006)
Month to date precipitation 1.61 0.86  
Year to date precipitation 11.57 12.32  
Sea Level Pressure  
Sea Level Pressure 30.01 in    
Wind  
Wind Speed 5 mph (South)    
Max Wind Speed 14 mph    
Max Gust Speed 21 mph    
Visibility 10 miles    
Events Rain , Thunderstorm    
T = Trace of Precipitation, MM = Missing Value Source: NWS Daily Summary

Daily Weather History Graph

Daily Weather History Graph

Search for Another Location

Airport or City:

Trip Planner

Search our weather history database for the weather conditions in past years. The results will help you decide how hot, cold, wet, or windy it might be!

Date:

Astronomy

Sep. 15, 2013 Rise Set
Actual Time 6:49 AM MDT 7:15 PM MDT
Civil Twilight 6:22 AM MDT 7:42 PM MDT
Nautical Twilight 5:50 AM MDT 8:13 PM MDT
Astronomical Twilight 5:18 AM MDT 8:45 PM MDT
Moon 4:43 PM MDT (9/15) 2:31 AM MDT (9/15)
Length of Visible Light 13h 20m
Length of Day
12h 26m
Waxing Gibbous, 82% of the Moon is Illuminated
Sep 15
Waxing Gibbous
Sep 19
Full
Sep 26
Last Quarter
Oct 4
New
Oct 11
First Quarter

Hourly Weather History & Observations

Time (MDT) Temp. Windchill Dew Point Humidity Pressure Visibility Wind Dir Wind Speed Gust Speed Precip Events Conditions
12:53 AM 45.0 °F 42.6 °F 43.0 °F 93% 29.94 in 10.0 mi South 4.6 mph - N/A   Scattered Clouds
1:53 AM 45.0 °F 41.2 °F 43.0 °F 93% 29.93 in 10.0 mi SW 6.9 mph - N/A   Clear
2:53 AM 44.1 °F 40.1 °F 42.1 °F 93% 29.92 in 10.0 mi South 6.9 mph - N/A   Mostly Cloudy
3:53 AM 45.0 °F 43.5 °F 43.0 °F 93% 29.93 in 10.0 mi SE 3.5 mph - N/A   Mostly Cloudy
4:53 AM 44.1 °F - 43.0 °F 96% 29.94 in 10.0 mi Calm Calm - N/A   Overcast
5:53 AM 45.0 °F - 43.0 °F 93% 29.94 in 10.0 mi Calm Calm - N/A   Overcast
6:53 AM 46.0 °F - 44.1 °F 93% 29.98 in 10.0 mi Calm Calm - N/A   Mostly Cloudy
7:53 AM 46.9 °F - 43.0 °F 86% 29.99 in 10.0 mi SSE 4.6 mph - N/A   Mostly Cloudy
8:53 AM 50.0 °F - 44.1 °F 80% 30.01 in 10.0 mi Calm Calm - N/A   Scattered Clouds
9:53 AM 57.0 °F - 45.0 °F 64% 30.00 in 10.0 mi North 6.9 mph - N/A   Overcast
10:53 AM 57.9 °F - 46.0 °F 65% 30.01 in 10.0 mi North 5.8 mph - N/A   Mostly Cloudy
11:53 AM 59.0 °F - 46.0 °F 62% 30.01 in 10.0 mi Variable 4.6 mph - 0.00 in   Mostly Cloudy
12:53 PM 61.0 °F - 46.0 °F 58% 29.99 in 10.0 mi North 6.9 mph - 0.00 in   Mostly Cloudy
1:53 PM 62.1 °F - 44.1 °F 52% 29.97 in 10.0 mi Calm Calm - N/A   Mostly Cloudy
2:53 PM 62.1 °F - 45.0 °F 53% 29.97 in 10.0 mi NNW 9.2 mph 17.3 mph N/A   Mostly Cloudy
3:53 PM 55.9 °F - 48.9 °F 77% 30.02 in 9.0 mi Calm Calm - 0.00 in Rain Light Rain
4:03 PM 55.4 °F - 51.8 °F 88% 30.29 in 9.0 mi SSW 5.8 mph - N/A Rain , Thunderstorm Thunderstorms and Rain
4:53 PM 52.0 °F - 48.0 °F 86% 30.06 in 10.0 mi SE 10.4 mph - 0.05 in Rain Light Rain
5:53 PM 54.0 °F - 48.0 °F 80% 30.04 in 10.0 mi SE 12.7 mph - 0.04 in   Mostly Cloudy
6:53 PM 54.0 °F - 48.0 °F 80% 30.03 in 10.0 mi SE 9.2 mph - 0.02 in   Mostly Cloudy
7:53 PM 53.1 °F - 46.9 °F 80% 30.06 in 10.0 mi Calm Calm - N/A   Mostly Cloudy
8:53 PM 50.0 °F - 46.9 °F 89% 30.09 in 10.0 mi South 3.5 mph - N/A   Clear
9:53 PM 48.9 °F - 46.0 °F 90% 30.06 in 10.0 mi Variable 4.6 mph - N/A   Overcast
10:53 PM 46.0 °F 41.9 °F 44.1 °F 93% 30.07 in 10.0 mi SW 8.1 mph - N/A   Partly Cloudy
11:53 PM 45.0 °F 43.5 °F 43.0 °F 93% 30.08 in 10.0 mi SSW 3.5 mph - N/A   Partly Cloudy